GW4510 Weather Reports


Display with metric or nautical units.
time (UTC)temp
F
wind
direction
speed
MPH
gust
MPH
rain 1hr
in
rain 24hr
in
rain mn
in
humidity
%
barometer
mb
20260507111548 45 128 0.0 1.0 0.00 0.39 0.02 96 1008.1
20260507111047 45 0 0.0 1.0 0.00 0.39 0.02 96 1008.3
20260507110547 45 0 0.0 1.0 0.00 0.39 0.02 96 1008.2
20260507110048 45 0 0.0 1.0 0.00 0.39 0.02 96 1008.2
20260507105547 45 0 0.0 1.0 0.00 0.39 0.02 96 1008.0
20260507105046 45 0 0.0 2.0 0.00 0.39 0.02 96 1008.0
20260507104551 44 129 0.0 2.0 0.00 0.39 0.02 96 1008.1
20260507104045 44 0 0.0 1.0 0.00 0.39 0.02 96 1007.8
20260507103546 44 115 0.0 1.0 0.00 0.39 0.02 96 1007.8
20260507103055 44 0 0.0 1.0 0.00 0.39 0.02 96 1007.8
20260507102548 44 0 0.0 0.0 0.00 0.39 0.02 96 1007.7
20260507102047 44 0 0.0 1.0 0.00 0.39 0.02 96 1007.3
20260507101550 44 0 0.0 1.0 0.00 0.39 0.02 96 1007.5
20260507101047 44 115 0.0 1.0 0.00 0.39 0.02 96 1007.6
20260507100546 44 116 0.0 1.0 0.00 0.39 0.02 96 1007.6
20260507100057 44 0 0.0 1.0 0.00 0.39 0.02 96 1007.5
20260507095544 44 0 0.0 1.0 0.00 0.39 0.02 96 1007.4
20260507095044 44 0 0.0 1.0 0.00 0.39 0.02 96 1007.6
20260507094554 44 0 0.0 1.0 0.00 0.39 0.02 96 1007.5
20260507094046 44 0 0.0 1.0 0.00 0.39 0.02 96 1007.5
20260507093548 44 0 0.0 1.0 0.00 0.39 0.02 96 1007.6
20260507093052 44 0 0.0 1.0 0.00 0.39 0.02 96 1007.8
20260507092547 44 0 0.0 1.0 0.00 0.39 0.02 96 1007.9
20260507092048 44 0 0.0 1.0 0.00 0.39 0.02 96 1007.9
20260507091549 44 116 0.0 1.0 0.00 0.39 0.02 96 1007.8
20260507091049 44 0 0.0 1.0 0.00 0.39 0.02 96 1007.9
20260507090549 44 0 0.0 4.0 0.00 0.39 0.02 96 1008.0
20260507090050 44 0 0.0 4.0 0.00 0.39 0.02 96 1007.7
20260507085550 44 115 0.0 4.0 0.00 0.39 0.02 96 1007.8
20260507085047 44 0 0.0 2.0 0.01 0.39 0.02 96 1007.9
20260507084557 44 0 0.0 2.0 0.01 0.39 0.02 96 1007.9
20260507084046 44 120 0.0 2.0 0.01 0.39 0.02 96 1008.1
20260507083547 44 120 0.0 2.0 0.01 0.39 0.02 96 1007.9
20260507083057 44 119 0.0 1.0 0.01 0.39 0.02 96 1008.2
20260507082544 44 120 0.0 1.0 0.01 0.39 0.02 96 1007.9
20260507082048 44 0 0.0 1.0 0.01 0.39 0.02 96 1007.7
20260507081554 44 0 0.0 1.0 0.02 0.39 0.02 96 1007.7
20260507081048 44 0 0.0 1.0 0.02 0.39 0.02 96 1007.8
20260507080548 44 0 0.0 1.0 0.02 0.39 0.02 95 1007.7
20260507080126 45 0 0.0 1.0 0.02 0.39 0.02 95 1008.0
20260507075551 45 0 0.0 1.0 0.02 0.39 0.02 95 1007.8
20260507075048 45 0 0.0 1.0 0.01 0.38 0.01 95 1007.4
20260507074603 45 0 0.0 1.0 0.01 0.38 0.01 95 1007.7
20260507074046 45 0 0.0 2.0 0.01 0.38 0.01 95 1007.2
20260507073548 45 0 0.0 2.0 0.01 0.38 0.01 95 1007.4
20260507073100 45 126 0.0 2.0 0.01 0.38 0.01 95 1007.6
20260507072547 45 147 0.0 2.0 0.01 0.38 0.01 95 1007.7
20260507072046 45 0 0.0 2.0 0.00 0.37 0.00 95 1008.0
20260507071602 45 135 0.0 1.0 0.00 0.37 0.00 95 1007.8
20260507071049 45 111 0.0 2.0 0.00 0.37 0.00 95 1007.8
20260507070544 45 0 0.0 2.0 0.00 0.37 0.00 95 1007.6
20260507070053 45 0 0.0 2.0 0.00 0.37 0.00 95 1007.2
20260507065546 45 0 0.0 2.0 0.00 0.37 0.00 95 1007.2
20260507065046 45 105 0.0 1.0 0.00 0.37 0.00 96 1007.2
20260507064559 45 0 0.0 1.0 0.00 0.37 0.00 95 1007.2
20260507064049 45 0 0.0 1.0 0.00 0.37 0.00 96 1007.0
20260507063544 45 139 0.0 1.0 0.00 0.37 0.00 96 1007.3
20260507063101 45 0 0.0 1.0 0.00 0.37 0.00 96 1007.1
20260507062546 46 0 0.0 0.0 0.00 0.37 0.00 96 1006.9
20260507062046 46 0 0.0 1.0 0.00 0.37 0.00 96 1007.1
20260507061550 46 0 0.0 1.0 0.00 0.37 0.00 96 1007.2
20260507061046 46 0 0.0 1.0 0.00 0.37 0.00 96 1007.3
20260507060547 46 0 0.0 0.0 0.00 0.37 0.00 95 1007.3
20260507060049 46 0 0.0 1.0 0.00 0.37 0.00 96 1007.2
20260507055547 46 0 0.0 1.0 0.00 0.37 0.00 95 1007.3
20260507055046 46 124 0.0 2.0 0.00 0.37 0.00 95 1007.6
20260507054605 46 0 0.0 2.0 0.00 0.37 0.00 95 1007.3
20260507054048 46 146 0.0 2.0 0.00 0.37 0.00 95 1007.3
20260507053544 47 0 0.0 2.0 0.00 0.37 0.00 95 1007.5
20260507053100 47 0 0.0 0.0 0.00 0.37 0.00 96 1007.8
20260507052550 47 0 0.0 0.0 0.00 0.37 0.00 96 1008.1
20260507052047 47 0 0.0 0.0 0.00 0.37 0.00 96 1008.0
20260507051558 47 0 0.0 1.0 0.00 0.37 0.00 96 1007.9
20260507051048 47 0 0.0 1.0 0.00 0.37 0.00 95 1007.9
20260507050549 47 0 0.0 1.0 0.00 0.37 0.00 95 1008.0
20260507050055 47 0 0.0 5.0 0.00 0.37 0.00 95 1007.7
20260507045549 47 0 0.0 5.0 0.00 0.37 0.00 95 1007.7
20260507045049 47 0 0.0 3.0 0.00 0.37 0.00 95 1007.7
20260507044551 48 0 0.0 2.0 0.00 0.37 0.00 95 1007.6
20260507044050 48 115 0.0 1.0 0.00 0.37 0.00 96 1007.6
20260507043548 48 0 0.0 3.0 0.00 0.37 0.00 96 1007.5
20260507043049 48 0 0.0 3.0 0.00 0.37 0.00 95 1007.2
20260507042549 48 172 0.0 4.0 0.00 0.37 0.00 96 1007.2
20260507042048 49 131 0.0 4.0 0.01 0.37 0.00 95 1007.3
20260507041559 49 0 0.0 4.0 0.01 0.37 0.00 95 1007.3
20260507041048 49 0 0.0 3.0 0.01 0.37 0.00 96 1007.5
20260507040550 49 0 0.0 3.0 0.02 0.37 0.00 95 1007.3
20260507040059 49 110 0.0 3.0 0.02 0.37 0.00 95 1007.3
20260507035549 50 144 1.0 5.0 0.02 0.37 0.37 95 1007.5
20260507035049 50 132 0.0 8.0 0.02 0.37 0.37 95 1007.5
20260507034557 50 0 0.0 8.0 0.02 0.37 0.37 95 1007.4
20260507034049 50 122 1.0 4.0 0.02 0.37 0.37 95 1007.4
20260507033549 51 138 0.0 4.0 0.02 0.37 0.37 96 1007.2
20260507033056 51 0 0.0 7.0 0.02 0.37 0.37 96 1007.1
20260507032549 51 19 1.0 7.0 0.02 0.37 0.37 96 1007.1
20260507032049 52 124 1.0 7.0 0.01 0.36 0.36 96 1007.1
20260507031556 52 110 0.0 2.0 0.01 0.36 0.36 96 1007.0
20260507031052 52 0 0.0 2.0 0.02 0.36 0.36 96 1006.9
20260507030549 52 150 0.0 2.0 0.01 0.35 0.35 96 1006.9
20260507030057 52 0 0.0 3.0 0.01 0.35 0.35 96 1006.8
20260507025548 53 0 0.0 3.0 0.01 0.35 0.35 96 1006.6
20260507025048 53 127 0.0 6.0 0.01 0.35 0.35 96 1006.5
20260507024555 53 120 1.0 6.0 0.01 0.35 0.35 95 1006.5
20260507024048 54 129 1.0 6.0 0.01 0.35 0.35 96 1006.6
20260507023552 54 128 0.0 3.0 0.01 0.35 0.35 96 1006.7
20260507023054 55 0 0.0 5.0 0.01 0.35 0.35 96 1006.5
20260507022548 55 89 1.0 5.0 0.01 0.35 0.35 96 1006.7
20260507022048 55 134 1.0 4.0 0.01 0.35 0.35 96 1006.6
20260507021555 55 0 0.0 5.0 0.01 0.35 0.35 96 1006.8
20260507021048 56 0 1.0 8.0 0.00 0.34 0.34 96 1006.6
20260507020549 56 0 0.0 8.0 0.00 0.34 0.34 96 1006.6
20260507020104 56 124 2.0 8.0 0.00 0.34 0.34 96 1006.6
20260507015547 57 0 1.0 5.0 0.00 0.34 0.34 96 1006.4
20260507015048 57 120 1.0 5.0 0.00 0.34 0.34 97 1006.4
20260507014606 57 147 0.0 4.0 0.00 0.34 0.34 97 1006.0
20260507014048 57 117 0.0 4.0 0.00 0.34 0.34 97 1006.0
20260507013547 57 137 0.0 5.0 0.00 0.34 0.34 97 1006.3
20260507013053 57 0 1.0 5.0 0.00 0.34 0.34 97 1006.2
20260507012547 57 115 1.0 4.0 0.00 0.34 0.34 97 1006.0
20260507012048 57 90 1.0 6.0 0.00 0.34 0.34 97 1006.0
20260507011601 57 83 1.0 6.0 0.00 0.34 0.34 97 1006.0
20260507011049 57 0 0.0 8.0 0.00 0.34 0.34 97 1006.0
20260507010548 57 160 0.0 8.0 0.00 0.34 0.34 97 1006.1
20260507010055 57 117 0.0 3.0 0.00 0.34 0.34 97 1006.0
20260507005548 57 0 0.0 7.0 0.01 0.34 0.34 97 1006.0
20260507005053 57 0 0.0 7.0 0.01 0.34 0.34 97 1006.1
20260507004553 57 0 0.0 5.0 0.01 0.34 0.34 97 1006.0
20260507004048 57 0 2.0 5.0 0.01 0.34 0.34 97 1006.0
20260507003549 57 265 1.0 5.0 0.01 0.34 0.34 97 1006.0
20260507003051 57 0 2.0 5.0 0.01 0.34 0.34 97 1005.8
20260507002548 57 349 1.0 6.0 0.01 0.34 0.34 97 1005.9
20260507002051 57 0 0.0 6.0 0.01 0.34 0.34 97 1005.8
20260507001607 57 129 2.0 6.0 0.01 0.34 0.34 97 1005.9
20260507001047 57 0 1.0 5.0 0.01 0.34 0.34 97 1005.8
20260507000549 57 115 2.0 5.0 0.01 0.34 0.34 97 1005.8
20260507000058 57 67 1.0 3.0 0.01 0.34 0.34 97 1005.8
20260506235548 57 0 0.0 5.0 0.00 0.33 0.33 97 1005.7
20260506235044 57 0 1.0 5.0 0.00 0.33 0.33 97 1005.8
20260506234554 57 129 0.0 2.0 0.00 0.33 0.33 97 1005.8
20260506234047 57 0 0.0 3.0 0.00 0.33 0.33 97 1005.8
20260506233549 57 188 0.0 6.0 0.01 0.33 0.33 96 1005.7
20260506233052 57 115 2.0 6.0 0.02 0.33 0.33 96 1005.6
20260506232553 57 0 0.0 4.0 0.03 0.33 0.33 96 1005.5
20260506232048 57 0 0.0 4.0 0.03 0.33 0.33 96 1005.5
20260506231551 57 0 1.0 4.0 0.04 0.33 0.33 96 1005.5
20260506231048 57 0 1.0 4.0 0.06 0.33 0.33 96 1005.7
20260506230556 57 145 0.0 4.0 0.06 0.33 0.33 96 1005.7
20260506230057 57 154 0.0 4.0 0.06 0.33 0.33 96 1005.7
20260506225550 57 345 0.0 5.0 0.06 0.33 0.33 96 1005.6
20260506225048 57 0 1.0 5.0 0.06 0.33 0.33 96 1005.7
20260506224600 57 153 1.0 5.0 0.06 0.33 0.33 96 1005.7
20260506224044 57 0 0.0 7.0 0.07 0.33 0.33 96 1005.8
20260506223548 57 75 0.0 7.0 0.06 0.32 0.32 96 1005.8
20260506223050 57 355 3.0 7.0 0.06 0.31 0.31 96 1005.9
20260506222548 57 269 0.0 4.0 0.05 0.30 0.30 96 1005.9
20260506222048 57 112 0.0 7.0 0.05 0.30 0.30 96 1005.8
20260506221553 57 334 3.0 8.0 0.04 0.29 0.29 96 1005.9
20260506221047 57 105 2.0 8.0 0.03 0.27 0.27 96 1005.7
20260506220547 57 149 1.0 7.0 0.04 0.27 0.27 96 1005.9
20260506220109 57 0 2.0 8.0 0.05 0.27 0.27 96 1006.0
20260506215548 57 0 0.0 10.0 0.06 0.27 0.27 96 1006.0
20260506215048 57 194 4.0 10.0 0.07 0.27 0.27 96 1005.9
20260506214558 57 137 1.0 7.0 0.07 0.27 0.27 96 1006.1
20260506214048 57 87 1.0 5.0 0.07 0.26 0.26 96 1006.0
20260506213547 57 153 0.0 6.0 0.08 0.26 0.26 96 1006.1
20260506213102 57 0 1.0 10.0 0.08 0.25 0.25 96 1006.0
20260506212548 57 0 1.0 10.0 0.09 0.25 0.25 96 1006.1
20260506212050 57 72 2.0 10.0 0.10 0.25 0.25 95 1006.0
20260506211554 57 56 1.0 9.0 0.11 0.25 0.25 95 1006.2
20260506211048 57 345 3.0 9.0 0.11 0.24 0.24 95 1006.1
20260506210548 57 197 0.0 9.0 0.11 0.23 0.23 95 1006.1
20260506210107 57 56 2.0 9.0 0.11 0.22 0.22 95 1006.2
20260506205544 57 133 2.0 8.0 0.10 0.21 0.21 95 1006.2
20260506205050 57 266 2.0 8.0 0.10 0.20 0.20 95 1006.3
20260506204600 57 0 1.0 8.0 0.10 0.20 0.20 95 1006.4
20260506204047 57 50 1.0 7.0 0.10 0.19 0.19 95 1006.3
20260506203547 58 105 1.0 7.0 0.10 0.18 0.18 95 1006.5
20260506203141 58 0 2.0 7.0 0.09 0.17 0.17 95 1006.6
20260506202550 58 0 2.0 13.0 0.08 0.16 0.16 95 1006.7
20260506202048 58 141 2.0 13.0 0.07 0.15 0.15 94 1006.7
20260506201555 58 164 3.0 13.0 0.06 0.14 0.14 94 1006.7
20260506201049 58 353 0.0 9.0 0.05 0.13 0.13 94 1006.7
20260506200548 58 141 3.0 9.0 0.04 0.12 0.12 94 1006.7
20260506200054 58 294 0.0 4.0 0.04 0.11 0.11 94 1006.7
20260506195548 58 65 1.0 5.0 0.04 0.11 0.11 94 1006.8
20260506195048 59 0 0.0 5.0 0.03 0.10 0.10 94 1006.8
20260506194554 59 78 1.0 5.0 0.04 0.10 0.10 93 1007.0
20260506194047 59 49 1.0 4.0 0.03 0.09 0.09 93 1007.1
20260506193547 59 121 0.0 4.0 0.02 0.08 0.08 94 1007.0
20260506193051 59 129 1.0 4.0 0.02 0.08 0.08 93 1007.0
20260506192549 59 0 1.0 4.0 0.02 0.08 0.08 93 1006.9
20260506192048 59 0 0.0 4.0 0.02 0.08 0.08 93 1007.1
20260506191554 59 0 0.0 8.0 0.03 0.08 0.08 93 1007.0
20260506191048 59 129 0.0 8.0 0.03 0.08 0.08 93 1007.0
20260506190548 59 0 2.0 8.0 0.04 0.08 0.08 93 1007.1
20260506190057 60 0 0.0 6.0 0.03 0.07 0.07 93 1007.0
20260506185548 60 341 1.0 6.0 0.04 0.07 0.07 93 1007.2
20260506185048 60 0 0.0 8.0 0.04 0.07 0.07 92 1006.8
20260506184600 60 131 2.0 8.0 0.04 0.06 0.06 92 1006.9
20260506184052 60 297 3.0 8.0 0.04 0.06 0.06 92 1006.9
20260506183548 60 292 2.0 6.0 0.05 0.06 0.06 91 1007.2
20260506183059 60 252 0.0 5.0 0.05 0.06 0.06 91 1007.2
20260506182548 60 10 1.0 5.0 0.06 0.06 0.06 91 1007.4
20260506182048 60 0 1.0 4.0 0.06 0.06 0.06 91 1007.3
20260506181600 60 305 0.0 5.0 0.05 0.05 0.05 91 1007.5
20260506181048 60 0 0.0 9.0 0.05 0.05 0.05 90 1007.6
20260506180548 60 155 1.0 9.0 0.04 0.04 0.04 90 1007.7
20260506180057 60 44 0.0 4.0 0.04 0.04 0.04 90 1007.8
20260506175548 60 123 0.0 5.0 0.03 0.03 0.03 89 1008.0
20260506175052 61 0 0.0 5.0 0.03 0.03 0.03 88 1008.1
20260506174608 61 122 1.0 5.0 0.02 0.02 0.02 86 1008.2
20260506174047 62 132 1.0 4.0 0.02 0.02 0.02 85 1008.1
20260506173545 63 153 0.0 5.0 0.01 0.01 0.01 82 1008.2
20260506173057 64 320 0.0 10.0 0.01 0.01 0.01 79 1008.1
20260506172544 65 113 3.0 10.0 0.00 0.00 0.00 76 1008.1
20260506172048 65 139 2.0 12.0 0.00 0.00 0.00 73 1008.0
20260506171605 66 91 2.0 12.0 0.00 0.00 0.00 72 1008.0
20260506171048 66 82 1.0 8.0 0.00 0.00 0.00 71 1007.9
20260506170548 66 90 3.0 8.0 0.00 0.00 0.00 71 1007.9
20260506170103 67 87 2.0 14.0 0.00 0.00 0.00 71 1008.0
20260506165548 67 274 3.0 14.0 0.00 0.00 0.00 70 1008.0
20260506165048 67 108 4.0 13.0 0.00 0.00 0.00 71 1008.0
20260506164558 67 50 4.0 14.0 0.00 0.00 0.00 70 1008.1
20260506164047 66 122 5.0 14.0 0.00 0.00 0.00 70 1008.1
20260506163548 67 329 2.0 13.0 0.00 0.00 0.00 70 1008.1
20260506163121 66 274 3.0 13.0 0.00 0.00 0.00 71 1008.1
20260506162548 66 120 1.0 6.0 0.00 0.00 0.00 71 1008.2
20260506162047 66 117 1.0 6.0 0.00 0.00 0.00 71 1008.4
20260506161557 66 11 1.0 6.0 0.00 0.00 0.00 72 1008.5
20260506161048 66 74 0.0 12.0 0.00 0.00 0.00 72 1008.7
20260506160547 66 137 1.0 12.0 0.00 0.00 0.00 72 1008.6
20260506160108 66 112 1.0 7.0 0.00 0.00 0.00 71 1008.6
20260506155548 66 0 2.0 10.0 0.00 0.00 0.00 71 1008.6
20260506155048 66 238 2.0 10.0 0.00 0.00 0.00 71 1008.7
20260506154554 67 100 1.0 6.0 0.00 0.00 0.00 71 1008.8
20260506154053 67 102 0.0 5.0 0.00 0.00 0.00 71 1008.8
20260506153544 67 144 0.0 7.0 0.00 0.00 0.00 73 1008.8
20260506153116 67 155 2.0 7.0 0.00 0.00 0.00 70 1008.8
20260506152550 67 141 1.0 8.0 0.00 0.00 0.00 71 1008.9
20260506152048 67 123 2.0 8.0 0.00 0.00 0.00 71 1008.9
20260506151552 66 120 1.0 6.0 0.00 0.00 0.00 72 1009.0
20260506151047 66 106 2.0 10.0 0.00 0.00 0.00 71 1009.1
20260506150547 66 70 2.0 10.0 0.00 0.00 0.00 72 1009.2
20260506150056 66 0 2.0 10.0 0.00 0.00 0.00 72 1009.2
20260506145551 67 336 2.0 8.0 0.00 0.00 0.00 72 1009.1
20260506145048 67 156 3.0 8.0 0.00 0.00 0.00 71 1009.4
20260506144557 67 304 1.0 7.0 0.00 0.00 0.00 72 1009.0
20260506144048 67 127 3.0 8.0 0.00 0.00 0.00 72 1008.9
20260506143548 67 104 2.0 8.0 0.00 0.00 0.00 72 1009.1
20260506143051 66 108 3.0 7.0 0.00 0.00 0.00 73 1009.3
20260506142549 66 117 2.0 6.0 0.00 0.00 0.00 72 1009.5
20260506142048 66 35 2.0 6.0 0.00 0.00 0.00 73 1009.2
20260506141553 66 0 0.0 6.0 0.00 0.00 0.00 74 1009.0
20260506141048 66 0 2.0 7.0 0.00 0.00 0.00 74 1009.1
20260506140551 65 0 3.0 7.0 0.00 0.00 0.00 74 1009.1
20260506140052 65 134 3.0 7.0 0.00 0.00 0.00 75 1009.1
20260506135547 65 312 1.0 9.0 0.00 0.00 0.00 75 1009.0
20260506135047 65 111 2.0 10.0 0.00 0.00 0.00 76 1008.9
20260506134555 64 161 3.0 10.0 0.00 0.00 0.00 76 1008.8
20260506134047 64 101 4.0 10.0 0.00 0.00 0.00 77 1009.0
20260506133547 64 98 0.0 11.0 0.00 0.00 0.00 77 1009.1
20260506133052 64 43 3.0 11.0 0.00 0.00 0.00 78 1009.0
20260506132550 63 0 0.0 7.0 0.00 0.00 0.00 79 1009.2
20260506132049 63 266 1.0 7.0 0.00 0.00 0.00 78 1009.3
20260506131607 63 348 1.0 11.0 0.00 0.00 0.00 78 1009.3
20260506131048 63 44 1.0 11.0 0.00 0.00 0.00 79 1009.4
20260506130550 63 341 4.0 11.0 0.00 0.00 0.00 79 1009.5
20260506130055 63 121 2.0 9.0 0.00 0.00 0.00 79 1009.5
20260506125549 63 82 2.0 9.0 0.00 0.00 0.00 80 1009.5
20260506125048 63 110 3.0 9.0 0.00 0.00 0.00 79 1009.7
20260506124550 63 107 2.0 7.0 0.00 0.00 0.00 79 1009.6
20260506124049 63 124 1.0 7.0 0.00 0.00 0.00 79 1009.5
20260506123548 63 0 2.0 7.0 0.00 0.00 0.00 79 1009.4
20260506123109 63 125 2.0 7.0 0.00 0.00 0.00 79 1009.4
20260506122549 63 73 2.0 13.0 0.00 0.00 0.00 80 1009.6
20260506122048 63 0 3.0 13.0 0.00 0.00 0.00 80 1009.4
20260506121605 62 225 2.0 11.0 0.00 0.00 0.00 80 1009.4
20260506121047 62 302 2.0 9.0 0.00 0.00 0.00 80 1009.3
20260506120547 62 89 2.0 9.0 0.00 0.00 0.00 81 1009.4
20260506120051 61 122 1.0 9.0 0.00 0.00 0.00 82 1009.6
20260506115549 61 162 2.0 9.0 0.00 0.00 0.00 82 1009.6
20260506115049 61 210 2.0 15.0 0.00 0.00 0.00 81 1009.7
20260506114552 61 92 2.0 15.0 0.00 0.00 0.00 81 1009.6
20260506114048 61 347 0.0 6.0 0.00 0.00 0.00 82 1009.5
20260506113548 61 160 1.0 7.0 0.00 0.00 0.00 84 1009.5
20260506113053 60 148 2.0 7.0 0.00 0.00 0.00 83 1009.7
20260506112547 60 115 2.0 10.0 0.00 0.00 0.00 83 1009.8
20260506112048 60 129 1.0 10.0 0.00 0.00 0.00 83 1010.0